Back to catalog

STARLINK-11249

AliveCommunicationsVLEO
NORAD 60728·PAYLOAD·🇺🇸 United States

Launched Aug 28, 2024 from Cape Canaveral Space Force Station

Loading…

Next Passes (next 24 hours)

TLE

FreshSource: CelesTrak SupGP

Epoch: Sep 14, 2026, 14:39 UTC

1 60728C 24152J   26257.61090278  .00011291  00000+0  93035-4 0  2576
2 60728  53.1573 264.8043 0001117  83.4164 115.6857 15.69695969    11

Track STARLINK-11249 in real time with AllMySat

Download on the App Store